Weather History for KHWY - August, 2013

Change the Weather History Date:

Thursday, August 1, 2013

  Actual Average (KHEF) Record (KHEF)
Temperature  
Mean Temperature 78 °F -  
Max Temperature 86 °F 83 °F 98 °F (2011)
Min Temperature 70 °F 62 °F 53 °F (1997)
Cooling Degree Days 13    
Growing Degree Days 28 (Base 50)    
Moisture  
Dew Point 73 °F    
Average Humidity 95    
Maximum Humidity 100    
Minimum Humidity 69    
Precipitation  
Precipitation 0.12 in - - ()
Sea Level Pressure  
Sea Level Pressure 29.90 in    
Wind  
Wind Speed 2 mph (SSW)    
Max Wind Speed 16 mph    
Max Gust Speed 22 mph    
Visibility 7 miles    
Events Rain , Thunderstorm    
Averages and records for this station are not official NWS values.
T = Trace of Precipitation, MM = Missing Value Source: NWS Daily Summary

Daily Weather History Graph

Daily Weather History Graph

Search for Another Location

Airport or City:

Trip Planner

Search our weather history database for the weather conditions in past years. The results will help you decide how hot, cold, wet, or windy it might be!

Date:

Astronomy

Aug. 01, 2013 Rise Set
Actual Time 6:12 AM EDT 8:21 PM EDT
Civil Twilight 5:43 AM EDT 8:50 PM EDT
Nautical Twilight 5:07 AM EDT 9:26 PM EDT
Astronomical Twilight 4:27 AM EDT 10:05 PM EDT
Moon 1:47 AM EDT (8/1) 4:27 PM EDT (8/1)
Length of Visible Light 15h 07m
Length of Day
14h 08m
Waning Crescent, 23% of the Moon is Illuminated
Aug 1
Waning Crescent
Aug 6
New
Aug 14
First Quarter
Aug 20
Full
Aug 28
Last Quarter

Hourly Weather History & Observations

Time (EDT) Temp. Heat Index Dew Point Humidity Pressure Visibility Wind Dir Wind Speed Gust Speed Precip Events Conditions
12:15 AM 71.2 °F - 71.2 °F 100% 30.02 in 5.0 mi Calm Calm - N/A Rain Rain
12:35 AM 71.2 °F - 71.2 °F 100% 30.02 in 5.0 mi Calm Calm - N/A   Overcast
12:55 AM 71.2 °F - 71.2 °F 100% 30.02 in 4.0 mi SE 4.6 mph - N/A Rain Light Rain
1:15 AM 71.1 °F - 71.1 °F 100% 30.01 in 5.0 mi SSE 3.5 mph - N/A Rain Rain
1:35 AM 70.9 °F - 70.9 °F 100% 30.00 in 7.0 mi SSE 3.5 mph - N/A   Overcast
1:55 AM 70.9 °F - 70.9 °F 100% 30.00 in 7.0 mi SSE 3.5 mph - 0.01 in   Drizzle
2:15 AM 70.7 °F - 70.7 °F 100% 29.99 in 5.0 mi SE 3.5 mph - N/A   Drizzle
2:35 AM 70.3 °F - 70.3 °F 100% 29.97 in 5.0 mi SE 4.6 mph - N/A Rain Heavy Rain
2:55 AM 70.3 °F - 70.3 °F 100% 29.96 in 7.0 mi Calm Calm - N/A Rain Rain
3:15 AM 70.2 °F - 70.2 °F 100% 29.95 in 4.0 mi ESE 5.8 mph - N/A Rain Rain
3:35 AM 70.2 °F - 70.2 °F 100% 29.94 in 5.0 mi Calm Calm - N/A   Heavy Drizzle
3:55 AM 70.3 °F - 70.3 °F 100% 29.94 in 4.0 mi Calm Calm - 0.01 in Rain Rain
4:15 AM 70.3 °F - 70.3 °F 100% 29.93 in 4.0 mi Calm Calm - N/A   Heavy Drizzle
4:35 AM 70.3 °F - 70.3 °F 100% 29.92 in 3.0 mi Calm Calm - N/A   Heavy Drizzle
4:55 AM 70.7 °F - 70.7 °F 100% 29.92 in 5.0 mi Calm Calm - 0.01 in   Overcast
5:15 AM 70.7 °F - 70.7 °F 100% 29.91 in 3.0 mi Calm Calm - N/A   Overcast
5:35 AM 70.9 °F - 70.9 °F 100% 29.92 in 4.0 mi Calm Calm - N/A   Overcast
5:55 AM 70.9 °F - 70.9 °F 100% 29.92 in 2.5 mi Calm Calm - N/A   Overcast
6:15 AM 71.1 °F - 71.1 °F 100% 29.92 in 2.5 mi Calm Calm - N/A   Overcast
6:35 AM 71.1 °F - 71.1 °F 100% 29.92 in 1.5 mi Calm Calm - 0.01 in   Overcast
6:55 AM 71.2 °F - 71.2 °F 100% 29.92 in 1.2 mi Calm Calm - 0.01 in   Overcast
7:15 AM 71.4 °F - 71.4 °F 100% 29.92 in 1.2 mi Calm Calm - N/A   Light Drizzle
7:35 AM 71.6 °F - 71.6 °F 100% 29.92 in 1.0 mi Calm Calm - N/A   Overcast
7:55 AM 71.8 °F - 71.8 °F 100% 29.92 in 1.5 mi Calm Calm - 0.01 in Rain Light Rain
8:15 AM 72.1 °F - 72.1 °F 100% 29.92 in 3.0 mi South 3.5 mph - N/A Rain Light Rain
8:35 AM 72.7 °F - 72.7 °F 100% 29.91 in 5.0 mi SSW 3.5 mph - N/A   Overcast
8:55 AM 72.7 °F - 72.7 °F 100% 29.92 in 5.0 mi SSW 4.6 mph - N/A   Overcast
9:15 AM 72.7 °F - 72.7 °F 100% 29.92 in 5.0 mi Calm Calm - N/A Rain Light Rain
9:35 AM 72.7 °F - 72.7 °F 100% 29.92 in 5.0 mi Calm Calm - N/A Rain Rain
9:55 AM 73.4 °F - 73.4 °F 100% 29.92 in 5.0 mi SW 3.5 mph - 0.01 in   Overcast
10:15 AM 73.9 °F - 73.9 °F 100% 29.92 in 7.0 mi SW 4.6 mph - N/A   Overcast
10:35 AM 75.2 °F - 75.2 °F 100% 29.92 in 10.0 mi SW 3.5 mph - N/A   Overcast
10:55 AM 76.8 °F - 75.6 °F 96% 29.90 in 10.0 mi SSW 5.8 mph - N/A Thunderstorm Overcast
11:15 AM 76.1 °F - 75.0 °F 96% 29.91 in 10.0 mi WSW 6.9 mph - N/A   Overcast
11:35 AM 77.7 °F - 75.4 °F 92% 29.90 in 10.0 mi SW 4.6 mph - N/A Thunderstorm Mostly Cloudy
11:55 AM 79.7 °F - 75.9 °F 88% 29.90 in 10.0 mi SSW 8.1 mph - 0.01 in   Scattered Clouds
12:15 PM 80.6 °F 86.6 °F 76.1 °F 86% 29.90 in 10.0 mi WSW 4.6 mph - N/A   Scattered Clouds
12:35 PM 81.7 °F 88.7 °F 76.1 °F 83% 29.89 in 10.0 mi South 4.6 mph - N/A   Scattered Clouds
12:55 PM 82.8 °F 91.3 °F 76.8 °F 82% 29.88 in 10.0 mi SW 8.1 mph - N/A Thunderstorm Scattered Clouds
1:15 PM 82.9 °F 90.5 °F 75.4 °F 78% 29.87 in 10.0 mi SSW 4.6 mph - N/A   Scattered Clouds
1:35 PM 82.6 °F 90.2 °F 75.7 °F 80% 29.87 in 10.0 mi Calm Calm - N/A   Mostly Cloudy
1:55 PM 83.8 °F 92.5 °F 76.1 °F 77% 29.87 in 10.0 mi SW 3.5 mph - 0.01 in   Overcast
2:15 PM 84.2 °F 92.6 °F 75.6 °F 75% 29.86 in 10.0 mi SSW 4.6 mph - N/A   Overcast
2:35 PM 84.2 °F 93.0 °F 75.9 °F 76% 29.86 in 10.0 mi SSW 4.6 mph - N/A   Mostly Cloudy
2:55 PM 85.6 °F 95.5 °F 75.9 °F 73% 29.85 in 10.0 mi Calm Calm - N/A   Mostly Cloudy
3:15 PM 84.7 °F 93.6 °F 75.7 °F 74% 29.84 in 10.0 mi ESE 5.8 mph - N/A   Mostly Cloudy
3:35 PM 85.6 °F 94.2 °F 74.8 °F 70% 29.83 in 10.0 mi Calm Calm - N/A Thunderstorm Scattered Clouds
3:55 PM 86.0 °F 94.6 °F 74.8 °F 69% 29.82 in 10.0 mi Calm Calm - N/A Thunderstorm Clear
4:15 PM 83.7 °F 91.7 °F 75.4 °F 76% 29.83 in 10.0 mi Calm Calm - 0.01 in Thunderstorm Mostly Cloudy
4:35 PM 79.3 °F - 76.8 °F 92% 29.83 in 10.0 mi South 3.5 mph - 0.01 in Rain , Thunderstorm Light Thunderstorms and Rain
4:55 PM 76.3 °F - 74.8 °F 95% 29.87 in 5.0 mi West 16.1 mph 21.9 mph 0.01 in Rain , Thunderstorm Heavy Thunderstorms and Rain
5:15 PM 71.6 °F - 71.6 °F 100% 29.87 in 1.2 mi NW 6.9 mph - N/A Rain , Thunderstorm Thunderstorms and Rain
5:35 PM 72.1 °F - 72.1 °F 100% 29.85 in 10.0 mi Calm Calm - N/A Rain Light Rain
5:55 PM 72.0 °F - 72.0 °F 100% 29.85 in 10.0 mi SSE 4.6 mph - N/A   Mostly Cloudy
6:15 PM 72.1 °F - 72.1 °F 100% 29.89 in 10.0 mi Calm Calm - N/A   Mostly Cloudy
6:35 PM 72.5 °F - 72.5 °F 100% 29.89 in 10.0 mi SSW 5.8 mph - N/A   Scattered Clouds
6:55 PM 72.5 °F - 72.5 °F 100% 29.90 in 10.0 mi Calm Calm - N/A   Mostly Cloudy
7:15 PM 73.8 °F - 73.8 °F 100% 29.88 in 7.0 mi Calm Calm - 0.01 in   Overcast
7:35 PM 74.3 °F - 74.3 °F 100% 29.86 in 10.0 mi SW 3.5 mph - 0.01 in   Mostly Cloudy
7:55 PM 74.3 °F - 74.3 °F 100% 29.87 in 10.0 mi Calm Calm - 0.01 in   Scattered Clouds
8:15 PM 74.1 °F - 74.1 °F 100% 29.87 in 10.0 mi Calm Calm - N/A   Clear
8:35 PM 73.0 °F - 73.0 °F 100% 29.87 in 5.0 mi Calm Calm - N/A   Clear
8:55 PM 72.7 °F - 72.7 °F 100% 29.87 in 7.0 mi WSW 4.6 mph - 0.01 in   Clear
9:15 PM 72.7 °F - 72.7 °F 100% 29.87 in 10.0 mi SSW 4.6 mph - N/A   Clear
9:35 PM 72.3 °F - 72.3 °F 100% 29.87 in 10.0 mi WSW 4.6 mph - N/A   Clear
9:55 PM 71.8 °F - 71.8 °F 100% 29.88 in 10.0 mi Calm Calm - N/A   Clear
10:15 PM 71.6 °F - 71.6 °F 100% 29.88 in 10.0 mi Calm Calm - N/A   Clear
10:35 PM 70.9 °F - 70.9 °F 100% 29.88 in 10.0 mi SW 3.5 mph - N/A   Clear
10:55 PM 70.7 °F - 70.7 °F 100% 29.89 in 7.0 mi Calm Calm - N/A   Clear
11:15 PM 70.5 °F - 70.5 °F 100% 29.89 in 10.0 mi SW 3.5 mph - N/A   Clear
11:35 PM 70.5 °F - 70.5 °F 100% 29.89 in 7.0 mi SW 3.5 mph - 0.01 in   Clear
11:55 PM 70.5 °F - 70.5 °F 100% 29.89 in 7.0 mi SW 4.6 mph - 0.01 in   Clear